| time (UTC) | temp F | wind direction | speed MPH | gust MPH | rain 1hr in | rain 24hr in | rain mn in | humidity % | barometer mb |
| 20260509020033 | 63 | 319 | 8.0 | 21.0 | 0.00 | 0.00 | 0.00 | 40 | 1022.1 |
| 20260509014608 | 64 | 328 | 10.0 | 19.0 | 0.00 | 0.00 | 0.00 | 38 | 1022.1 |
| 20260509013033 | 65 | 323 | 12.0 | 23.0 | 0.00 | 0.00 | 0.00 | 37 | 1021.9 |
| 20260509011647 | 66 | 316 | 12.0 | 26.0 | 0.00 | 0.00 | 0.00 | 36 | 1021.7 |
| 20260509010034 | 67 | 317 | 13.0 | 26.0 | 0.00 | 0.00 | 0.00 | 35 | 1021.5 |
| 20260509003107 | 68 | 317 | 13.0 | 27.0 | 0.00 | 0.00 | 0.00 | 34 | 1021.3 |
| 20260509001532 | 69 | 334 | 11.0 | 24.0 | 0.00 | 0.00 | 0.00 | 34 | 1021.3 |
| 20260508234532 | 69 | 25 | 9.0 | 18.0 | 0.00 | 0.00 | 0.00 | 34 | 1021.5 |
| 20260508233045 | 69 | 28 | 8.0 | 18.0 | 0.00 | 0.00 | 0.00 | 33 | 1021.5 |
| 20260508231538 | 70 | 29 | 7.0 | 15.0 | 0.00 | 0.00 | 0.00 | 33 | 1021.6 |
| 20260508230035 | 70 | 37 | 6.0 | 14.0 | 0.00 | 0.00 | 0.00 | 32 | 1021.6 |
| 20260508223035 | 69 | 55 | 6.0 | 14.0 | 0.00 | 0.00 | 0.00 | 33 | 1021.5 |
| 20260508221529 | 68 | 56 | 7.0 | 14.0 | 0.00 | 0.00 | 0.00 | 34 | 1021.6 |
| 20260508220033 | 68 | 60 | 7.0 | 13.0 | 0.00 | 0.00 | 0.00 | 34 | 1021.6 |
| 20260508214535 | 68 | 45 | 7.0 | 15.0 | 0.00 | 0.00 | 0.00 | 33 | 1021.6 |
| 20260508213037 | 68 | 39 | 7.0 | 14.0 | 0.00 | 0.00 | 0.00 | 33 | 1021.7 |
| 20260508211535 | 68 | 56 | 7.0 | 13.0 | 0.00 | 0.00 | 0.00 | 34 | 1021.6 |
| 20260508210030 | 67 | 70 | 6.0 | 12.0 | 0.00 | 0.00 | 0.00 | 34 | 1021.6 |
| 20260508204535 | 66 | 77 | 5.0 | 10.0 | 0.00 | 0.00 | 0.00 | 36 | 1021.7 |
| 20260508201535 | 66 | 86 | 5.0 | 10.0 | 0.00 | 0.00 | 0.00 | 40 | 1021.8 |
| 20260508200035 | 65 | 73 | 5.0 | 10.0 | 0.00 | 0.00 | 0.00 | 42 | 1021.9 |
| 20260508194534 | 64 | 89 | 4.0 | 11.0 | 0.00 | 0.00 | 0.00 | 45 | 1021.8 |
| 20260508193031 | 62 | 82 | 6.0 | 11.0 | 0.00 | 0.00 | 0.00 | 48 | 1021.8 |
| 20260508191529 | 62 | 87 | 5.0 | 11.0 | 0.00 | 0.00 | 0.00 | 49 | 1021.8 |
| 20260508190034 | 62 | 63 | 6.0 | 12.0 | 0.00 | 0.00 | 0.00 | 49 | 1021.7 |
| 20260508184610 | 60 | 79 | 5.0 | 11.0 | 0.00 | 0.00 | 0.00 | 54 | 1021.6 |
| 20260508183035 | 58 | 76 | 5.0 | 10.0 | 0.00 | 0.00 | 0.00 | 56 | 1021.6 |
| 20260508181642 | 58 | 70 | 3.0 | 7.0 | 0.00 | 0.00 | 0.00 | 56 | 1021.7 |
| 20260508180148 | 59 | 59 | 4.0 | 7.0 | 0.00 | 0.00 | 0.00 | 55 | 1021.4 |
| 20260508174535 | 59 | 76 | 4.0 | 7.0 | 0.00 | 0.00 | 0.00 | 54 | 1021.1 |
| 20260508173033 | 60 | 77 | 3.0 | 8.0 | 0.00 | 0.00 | 0.00 | 52 | 1021.0 |
| 20260508171605 | 61 | 70 | 4.0 | 9.0 | 0.00 | 0.00 | 0.00 | 50 | 1021.0 |
| 20260508164607 | 61 | 87 | 3.0 | 10.0 | 0.00 | 0.00 | 0.00 | 48 | 1021.1 |
| 20260508163035 | 60 | 67 | 3.0 | 8.0 | 0.00 | 0.00 | 0.00 | 50 | 1021.2 |
| 20260508161535 | 59 | 86 | 3.0 | 7.0 | 0.00 | 0.00 | 0.00 | 54 | 1021.3 |
| 20260508160043 | 58 | 87 | 4.0 | 8.0 | 0.00 | 0.00 | 0.00 | 56 | 1021.3 |
| 20260508154537 | 57 | 98 | 3.0 | 7.0 | 0.00 | 0.00 | 0.00 | 58 | 1021.1 |
| 20260508153030 | 55 | 82 | 2.0 | 6.0 | 0.00 | 0.00 | 0.00 | 62 | 1021.0 |
| 20260508151533 | 52 | 90 | 1.0 | 4.0 | 0.00 | 0.00 | 0.00 | 67 | 1020.8 |
| 20260508144534 | 50 | 132 | 0.0 | 2.0 | 0.00 | 0.00 | 0.00 | 66 | 1020.6 |
| 20260508143031 | 49 | 131 | 2.0 | 3.0 | 0.00 | 0.00 | 0.00 | 68 | 1020.3 |
| 20260508141532 | 48 | 149 | 2.0 | 4.0 | 0.00 | 0.00 | 0.00 | 66 | 1020.2 |
| 20260508140032 | 48 | 161 | 3.0 | 4.0 | 0.00 | 0.00 | 0.00 | 66 | 1020.2 |
| 20260508134535 | 47 | 151 | 3.0 | 7.0 | 0.00 | 0.00 | 0.00 | 66 | 1019.9 |
| 20260508131544 | 44 | 186 | 4.0 | 6.0 | 0.00 | 0.00 | 0.00 | 63 | 1019.8 |
| 20260508130038 | 44 | 205 | 4.0 | 5.0 | 0.00 | 0.00 | 0.00 | 63 | 1019.6 |
| 20260508124531 | 44 | 211 | 3.0 | 4.0 | 0.00 | 0.00 | 0.00 | 63 | 1019.5 |
| 20260508123035 | 43 | 222 | 3.0 | 4.0 | 0.00 | 0.00 | 0.00 | 63 | 1019.5 |
| 20260508121544 | 44 | 228 | 2.0 | 4.0 | 0.00 | 0.00 | 0.00 | 62 | 1019.5 |
| 20260508120034 | 44 | 226 | 2.0 | 3.0 | 0.00 | 0.00 | 0.00 | 61 | 1019.6 |
| 20260508111537 | 45 | 212 | 3.0 | 5.0 | 0.00 | 0.00 | 0.00 | 58 | 1019.4 |
| 20260508104533 | 45 | 237 | 4.0 | 6.0 | 0.00 | 0.00 | 0.00 | 58 | 1019.4 |
| 20260508100035 | 46 | 247 | 2.0 | 3.0 | 0.00 | 0.00 | 0.00 | 53 | 1019.4 |
| 20260508091530 | 45 | 185 | 4.0 | 5.0 | 0.00 | 0.00 | 0.00 | 54 | 1019.2 |
| 20260508090108 | 45 | 221 | 4.0 | 5.0 | 0.00 | 0.00 | 0.00 | 52 | 1019.2 |
| 20260508083030 | 46 | 208 | 4.0 | 5.0 | 0.00 | 0.00 | 0.00 | 49 | 1019.2 |
| 20260508081535 | 46 | 196 | 4.0 | 7.0 | 0.00 | 0.00 | 0.00 | 48 | 1019.2 |
| 20260508080037 | 46 | 204 | 4.0 | 5.0 | 0.00 | 0.00 | 0.00 | 47 | 1019.3 |
| 20260508074532 | 47 | 228 | 4.0 | 5.0 | 0.00 | 0.00 | 0.00 | 46 | 1019.2 |
| 20260508073033 | 46 | 159 | 3.0 | 6.0 | 0.00 | 0.00 | 0.00 | 45 | 1019.1 |
| 20260508071537 | 46 | 177 | 2.0 | 5.0 | 0.00 | 0.00 | 0.00 | 45 | 1019.1 |
| 20260508070108 | 46 | 180 | 3.0 | 5.0 | 0.00 | 0.00 | 0.00 | 44 | 1019.1 |
| 20260508064533 | 47 | 194 | 4.0 | 5.0 | 0.00 | 0.00 | 0.00 | 43 | 1019.2 |
| 20260508063031 | 48 | 165 | 0.0 | 3.0 | 0.00 | 0.00 | 0.00 | 43 | 1019.2 |
| 20260508061536 | 48 | 156 | 2.0 | 5.0 | 0.00 | 0.00 | 0.00 | 43 | 1019.2 |
| 20260508060039 | 48 | 181 | 3.0 | 5.0 | 0.00 | 0.00 | 0.00 | 41 | 1019.1 |
| 20260508053034 | 50 | 177 | 2.0 | 4.0 | 0.00 | 0.00 | 0.00 | 39 | 1019.2 |
| 20260508051530 | 51 | 143 | 3.0 | 5.0 | 0.00 | 0.00 | 0.00 | 38 | 1019.1 |
| 20260508050030 | 52 | 145 | 4.0 | 7.0 | 0.00 | 0.00 | 0.00 | 37 | 1019.0 |
| 20260508044532 | 53 | 146 | 4.0 | 7.0 | 0.00 | 0.00 | 0.00 | 36 | 1019.0 |
| 20260508041535 | 55 | 135 | 4.0 | 8.0 | 0.00 | 0.00 | 0.00 | 35 | 1018.7 |
| 20260508034535 | 56 | 128 | 5.0 | 8.0 | 0.00 | 0.00 | 0.00 | 35 | 1018.3 |
| 20260508033035 | 57 | 121 | 3.0 | 7.0 | 0.00 | 0.00 | 0.00 | 34 | 1018.3 |
| 20260508031537 | 57 | 107 | 3.0 | 7.0 | 0.00 | 0.00 | 0.00 | 34 | 1018.3 |
| 20260508023030 | 62 | 88 | 5.0 | 9.0 | 0.00 | 0.00 | 0.00 | 29 | 1018.0 |